Flag for Norway Weather past 2 weeks in Longyearbyen, Svalbard, Norway

Now
23 °F

Passing clouds.


Feels Like: 15 °F
Forecast: 26 / 29 °F
Wind: 7 mph from Southeast

Location: Svalbard Lufthavn

Current Time: Mar 4, 2015 at 12:41:29 PM

Latest Report: Mar 4, 2015 at 11:50 AM


Visibility: N/A

Pressure: 29.59 "Hg

Humidity: 80%

Dew point: 18 °F

Location of LongyearbyenLocation

Historic Weather in Longyearbyen — Graph

°F

Longyearbyen temperature yesterday

Maximum temperature yesterday: 36 °F (at 9:50 AM)
Minimum temperature yesterday: 25 °F (at 12:50 AM)
Average temperature yesterday: 31 °F

Past Weeks' High & Low Weather Summary

 TemperatureHumidityPressure
High36 °F (Mar 3, 9:50 AM)93% (Feb 17, 6:50 PM)29.92 "Hg (Feb 17, 6:50 PM)
Low-13 °F (Feb 22, 3:50 AM)37% (Feb 24, 9:50 PM)28.94 "Hg (Feb 17, 2:50 PM)
Average11 °F68%29.39 "Hg
* Reported Feb 17 10:50 AM — Mar 4 10:50 AM, Longyearbyen, Weather by CustomWeather, © 2015

Note: Actual official high and low records may vary slightly from our data, if they occured in-between our weather recording intervals... More about our weather records

Advertising

Longyearbyen weather history for previous 24 hours

 ConditionsComfort  
Time TempWeatherWind HumidityBarometerVisibility
10:50 AM
Wed, Mar 4
23 °FPassing clouds.2 mph80%29.59 "HgN/A
9:50 AM23 °FPassing clouds.1 mph80%29.59 "HgN/A
8:50 AM23 °FPassing clouds.5 mph86%29.59 "HgN/A
7:50 AM25 °FPassing clouds.7 mph80%29.56 "HgN/A
6:50 AM25 °FPassing clouds.1 mph80%29.56 "HgN/A
5:50 AM27 °FPassing clouds.2 mph93%29.56 "HgN/A
4:50 AM25 °FPassing clouds.3 mph93%29.53 "HgN/A
3:50 AM25 °FPassing clouds.No wind80%29.53 "HgN/A
2:50 AM25 °FPassing clouds.3 mph86%29.53 "HgN/A
1:50 AM25 °FPassing clouds.2 mph86%29.50 "HgN/A
12:50 AM27 °FPassing clouds.8 mph86%29.50 "HgN/A
11:50 PM
Tue, Mar 3
28 °FPassing clouds.2 mph80%29.50 "HgN/A
10:50 PM28 °FPassing clouds.1 mph86%29.47 "HgN/A
9:50 PM30 °FPassing clouds.5 mph80%29.47 "HgN/A
8:50 PM28 °FPassing clouds.9 mph93%29.45 "HgN/A
7:50 PM28 °FPassing clouds.2 mph86%29.42 "HgN/A
6:50 PM30 °FPassing clouds.1 mph93%29.42 "HgN/A
5:50 PM30 °FPassing clouds.2 mph93%29.39 "HgN/A
5:02 PM32 °FPassing clouds.3 mph87%29.39 "HgN/A
3:50 PM30 °FPartly sunny.5 mph93%29.36 "HgN/A
2:50 PM30 °FLight rain. Partly sunny.7 mph93%29.36 "HgN/A
1:50 PM34 °FLight rain. Broken clouds.7 mph87%29.33 "HgN/A
12:50 PM34 °FLight rain. Partly sunny.6 mph87%29.30 "HgN/A
Weather by CustomWeather, © 2015

See weather overviewHow to use our weather pages